Location: Dos Palmas
(32.4468°N, 116.8732°W)
Time: 05:36:12
(UTC+00:00)

SJ 16-02 - Pass Details

Date: 20 June 2021
Orbit: 606 x 616 km, 75.0° (Epoch: 29 July)

Event Time Altitude Azimuth Distance (km) Brightness Sun altitude
Rises 08:41:57 0° 332° (NNW) 2,864 5.4 -32.7°
Reaches altitude 10° 08:44:21 10° 323° (NW) 1,957 4.3 -32.6°
Enters shadow 08:44:52 13° 319° (NW) 1,776 4.0 -32.6°
